Location: Ferques
(50.8300°N, 1.7599°E)
Time: 01:25:27
(UTC+00:00)

Cosmos 1605 Rocket - Pass Details

Date: 19 May 2025
Orbit: 944 x 1005 km, 82.9° (Epoch: 18 June)

Event Time Altitude Azimuth Distance (km) Brightness Sun altitude
Rises 23:23:20 0° 348° (NNW) 3,731 8.7 -18.9°
Reaches altitude 10° 23:25:54 10° 347° (NNW) 2,771 7.6 -19.0°
Maximum altitude 23:32:14 74° 265° (W) 1,026 4.1 -19.1°
Enters shadow 23:35:18 32° 186° (S) 1,614 4.6 -19.1°
